Regional Weather Roundup
Issued by NWS

Home | Current Version | Previous Version | Graphics & Text | Print | Product List | Glossary Off
Versions: 1 2 3 4 5 6 7 8 9 10 11 12 13 14 15 16 17 18 19 20 21 22 23 24 25 26 27 28 29 30 31 32 33 34 35 36 37 38 39 40 41 42 43 44 45 46 47 48 49 50

000
ASUS43 KTOP 141008
RWRKS

WEATHER ROUNDUP FOR KANSAS
NATIONAL WEATHER SERVICE GOODLAND KS
400 AM CST THU DEC 14 2017

NOTE:  "FAIR" INDICATES FEW OR NO CLOUDS BELOW 12,000 FEET WITH NO
SIGNIFICANT WEATHER AND/OR OBSTRUCTIONS TO VISIBILITY.

KSZ001>006-013>018-027>032-041>047-141100-
NORTHWEST KANSAS

CITY           SKY/WX    TMP DP  RH WIND       PRES   REMARKS
GOODLAND       CLOUDY    36  23  59 N10G23    30.12S WCI  28
HAYS           CLOUDY    38  22  52 N12       30.09S WCI  30
RUSSELL        PTCLDY    33  25  72 N7        30.08R
$$

KSZ061>065-074>080-084>089-141100-
SOUTHWEST KANSAS

CITY           SKY/WX    TMP DP  RH WIND       PRES   REMARKS
DODGE CITY     CLOUDY    38  20  48 N8        30.10R
ELKHART        PTCLDY    38  22  51 N6        30.11S
GARDEN CITY    CLOUDY    37  20  50 N10       30.12R WCI  30
GREAT BEND     CLOUDY    36  23  59 N10       30.09S WCI  28
LIBERAL        CLOUDY    38  19  46 N7        30.11R
PRATT          CLOUDY    37  22  53 N12       30.07S WCI  30
$$

KSZ066>073-081>083-090>101-141100-
SOUTHEAST KANSAS

CITY           SKY/WX    TMP DP  RH WIND       PRES   REMARKS
CHANUTE        CLEAR     29  24  82 NW5       30.03S
COFFEYVILLE    CLEAR     32  26  78 N7        30.04R
HUTCHINSON     PTCLDY    36  26  67 N6        30.06S
MEDICINE LODGE   N/A     41  25  53 N13       30.06R
NEWTON         PTCLDY    31  25  78 NW7       30.07R
PARSONS        CLEAR     30  26  85 NW3       30.04R
WICHITA INTL   CLOUDY    36  25  64 N8        30.06S
WICHITA JABRA  PTCLDY    33  26  75 NW6       30.07R
WICHITA MCCONL CLOUDY    34  24  66 N9        30.05S
WINFIELD       PTCLDY    36  27  69 N7        30.07R
$$

KSZ007>012-019>026-033>040-048>060-102>105-141100-
NORTHEAST KANSAS

CITY           SKY/WX    TMP DP  RH WIND       PRES   REMARKS
CONCORDIA      CLEAR     29  24  82 NW8       30.07R
EMPORIA        PTCLDY    29  23  78 NW5       30.04R
LAWRENCE       CLOUDY    36  28  73 NW7       30.03R
MANHATTAN      CLOUDY    36  27  69 CALM      30.05F
MARYSVILLE     CLOUDY    34  28  80 NW8       30.03F
OLATHE IND     CLOUDY    34  28  79 NW6       30.03R
OLATHE EXE     CLOUDY    37  25  61 N12       30.01R WCI  29
SALINA         MOCLDY    32  26  78 NW9       30.09R
TOPEKA BILLARD CLOUDY    36  28  73 NW8       30.03S
TOPEKA FORBES  CLOUDY    37  27  67 N9        30.02S
$$




USA.gov is the U.S. government's official web portal to all federal, state and local government web resources and services.